Theta_e
351 352 349 349 349 351 351 349 351 351 352 351 351 351 351 353 355 354 355 355 355 354 355 355 357 356 360 356 358 357 358 353 357 353 352 353 352 353 354 353 351 348
350 353 354 351 351 355 353 352 352 352 352 352 352 352 353 354 354 354 353 354 355 356 356 357 358 356 356 356 356 354 354 356 352 364 354 353 353 353 354 354 352 350
351 353 353 351 351 353 354 354 354 353 353 353 353 353 354 357 354 353 353 354 354 355 355 356 356 356 356 355 353 354 353 351 352 355 354 351 355 353 353 355 354 353
351 352 354 353 353 353 355 354 354 354 354 353 354 355 355 357 356 355 352 359 354 354 355 356 357 356 356 355 355 352 352 350 352 353 355 355 356 356 353 354 356 353
352 352 354 354 354 355 355 354 355 354 355 355 356 356 358 356 355 354 353 353 354 353 353 356 356 356 357 355 356 354 353 353 353 353 352 351 350 356 356 354 351 352
352 353 354 354 353 354 354 354 354 355 355 355 355 357 356 356 355 353 353 353 354 353 353 354 355 356 357 355 356 355 355 356 354 353 352 350 352 352 358 355 352 351
352 352 353 354 353 353 353 353 354 355 354 354 355 355 355 355 354 353 353 354 354 353 352 353 354 355 356 355 354 355 354 353 351 351 352 352 352 354 355 355 355 351
353 353 354 354 353 352 352 352 352 352 353 352 352 354 355 355 354 354 354 354 353 352 353 353 353 354 355 356 355 354 355 357 355 351 350 350 350 350 352 354 354 352
354 354 354 354 353 352 351 351 351 352 353 352 352 353 355 355 355 353 352 353 353 353 353 353 353 354 354 356 355 355 355 356 357 354 352 351 351 351 352 351 351 351
352 353 354 355 354 353 352 352 352 352 353 352 352 352 353 354 355 354 352 352 352 352 351 352 353 353 353 355 355 355 355 355 355 354 354 353 352 351 352 351 351 348
352 353 353 354 354 353 353 353 352 352 352 353 353 352 352 353 354 354 352 351 352 352 352 351 352 353 353 354 355 355 355 355 355 354 354 353 354 353 360 354 352 351
351 352 352 353 353 353 352 353 353 353 352 353 353 352 352 352 352 353 353 352 352 352 352 353 353 353 353 354 354 355 355 356 356 355 354 355 355 356 356 356 355 353
350 350 351 352 352 352 352 352 352 352 352 352 353 353 351 351 351 351 353 353 353 353 353 353 353 354 354 354 354 354 354 354 355 354 354 354 355 356 356 356 356 356
348 348 348 348 348 350 350 351 351 351 351 352 352 352 351 350 350 350 351 353 353 353 353 354 353 353 354 354 355 355 354 353 353 353 353 353 354 352 353 354 354 354
345 346 346 346 349 349 348 348 349 350 350 350 351 351 352 351 350 350 350 351 352 352 353 354 354 354 354 354 354 354 354 353 353 353 352 350 351 351 350 350 349 350
344 344 345 346 348 348 348 347 346 347 348 347 348 349 350 350 348 348 349 350 350 350 351 354 355 356 359 361 360 356 354 354 353 350 348 348 349 349 348 349 349 349
344 342 342 341 343 344 342 344 345 346 346 345 346 346 347 348 348 346 347 349 350 350 351 354 356 358 358 347 349 357 359 354 352 347 346 347 349 348 347 347 347 348
343 343 341 341 341 340 340 342 343 342 344 344 344 345 345 347 347 346 346 348 350 350 351 353 354 353 336 337 340 342 358 356 351 348 348 347 348 348 348 348 347 348
343 343 342 341 341 341 340 343 342 341 342 344 345 345 345 345 345 345 345 347 348 348 350 353 348 332 332 336 336 337 347 358 349 348 348 346 347 347 346 347 347 348
343 341 341 341 341 341 340 340 341 340 341 342 345 348 344 342 342 342 342 343 345 346 349 346 337 327 328 331 331 334 340 352 347 348 348 346 346 346 346 346 346 347
341 340 341 342 341 341 341 341 341 341 342 343 344 344 345 343 343 342 342 345 346 345 343 333 325 320 321 324 324 328 333 349 345 347 347 346 345 347 347 346 345 347
341 342 342 342 343 343 344 343 342 341 342 345 345 344 342 341 342 344 344 343 342 340 335 328 322 317 318 319 320 322 330 342 344 344 345 346 345 346 347 346 346 347
340 341 340 341 343 343 342 342 342 341 343 346 344 342 343 342 341 342 344 343 342 337 332 328 325 320 315 315 317 319 330 341 344 344 344 344 345 347 348 347 347 348
340 340 340 339 339 339 340 340 340 341 342 344 343 343 341 341 342 341 341 342 340 335 331 327 325 322 313 312 313 315 328 338 342 343 343 344 344 346 347 347 348 359
338 338 337 337 337 338 339 338 340 341 343 346 345 345 342 342 344 341 340 337 336 336 338 328 326 325 314 312 312 313 327 335 342 342 341 343 346 346 341 342 344 353
339 340 339 338 337 338 338 338 340 340 339 341 342 342 341 342 343 340 336 331 332 330 330 328 326 324 321 312 311 312 317 335 343 344 342 342 344 342 338 334 334 333
Wind_Speed
6 6 7 7 7 6 7 6 6 6 6 5 6 6 6 5 4 4 4 4 4 4 3 3 3 3 3 2 2 1 2 1 1 1 1 1 1 1 2 2 2 2
6 6 5 5 5 4 5 6 6 6 6 6 6 5 5 4 5 4 4 4 4 4 4 4 4 3 3 3 3 3 2 1 1 0 0 0 0 0 1 1 2 1
6 6 6 6 7 6 6 5 5 6 6 6 5 4 5 4 5 4 5 5 5 5 4 4 4 4 4 3 3 3 2 1 2 1 0 0 0 1 1 2 2 3
7 7 7 7 6 6 5 5 4 4 4 4 5 5 4 4 4 5 5 5 5 5 5 4 5 4 4 3 3 3 3 3 2 0 1 1 1 1 2 1 2 3
8 7 6 6 5 5 5 5 5 5 5 5 4 4 5 5 4 5 5 5 5 6 5 5 4 4 4 3 3 3 2 3 2 1 1 2 3 1 1 1 2 3
6 6 6 6 6 6 6 6 6 5 5 4 6 4 5 5 5 4 5 5 6 6 6 6 5 5 4 4 4 4 3 3 2 1 2 3 3 2 1 0 1 2
8 6 7 6 6 6 6 6 5 5 5 5 3 5 4 5 4 5 5 6 6 6 6 6 5 5 5 4 4 4 4 3 3 2 3 3 3 4 2 1 1 1
8 7 6 5 6 6 6 6 6 6 5 4 5 5 5 5 5 4 4 6 5 6 6 6 5 5 5 5 5 4 4 3 4 3 3 3 2 3 3 2 0 1
7 7 6 6 7 6 7 7 6 6 5 6 6 5 5 5 5 5 5 5 5 5 6 5 6 6 5 5 5 5 5 4 4 4 3 3 3 3 3 2 2 3
7 6 7 7 8 7 8 7 6 6 5 6 6 5 6 5 5 6 5 6 6 5 6 5 6 6 5 5 6 6 6 6 4 4 4 4 3 3 3 3 3 3
8 7 8 9 9 8 8 8 7 6 5 7 6 6 6 5 5 4 5 5 6 6 6 6 6 6 6 6 5 5 6 5 5 4 4 4 4 4 4 3 3 3
9 9 9 9 9 8 9 8 7 7 7 6 7 7 6 6 6 6 6 6 6 6 6 6 6 6 6 6 6 6 5 5 4 4 4 4 4 4 4 3 4 4
8 9 9 8 8 8 7 7 7 7 7 7 7 7 7 7 7 6 6 6 7 6 7 7 6 6 6 6 6 5 6 5 5 5 4 4 4 4 3 3 3 3
8 7 7 7 6 6 7 8 7 7 7 7 6 7 7 7 7 7 7 6 6 6 6 5 5 5 5 5 5 6 5 5 5 5 5 1 1 1 1 2 4 4
4 5 5 5 6 5 5 6 7 7 7 7 6 6 7 7 7 7 6 6 5 5 5 5 6 6 6 6 6 5 5 5 5 4 3 3 2 2 3 3 4 4
9 10 7 4 5 6 5 5 6 6 6 6 6 7 7 6 6 6 6 7 7 6 4 5 5 5 6 10 9 6 6 5 4 4 5 4 4 4 3 3 4 4
6 5 6 10 11 10 11 9 6 5 6 6 6 7 7 6 6 6 7 7 7 7 6 6 5 5 8 10 11 9 5 4 5 5 4 5 5 6 5 5 5 5
7 7 7 5 5 5 5 3 5 9 9 4 6 7 7 6 6 7 7 7 7 7 7 7 6 5 7 6 7 8 7 5 6 6 6 6 6 6 6 5 5 5
8 9 8 7 7 7 4 1 3 2 2 7 8 4 3 5 7 6 7 7 6 6 6 5 4 3 5 7 7 6 8 7 5 6 6 7 6 6 6 5 5 5
4 6 5 5 4 5 5 5 5 1 3 1 1 6 5 3 3 4 4 4 5 5 4 3 3 4 2 2 4 6 8 7 4 6 6 6 7 7 6 6 6 6
0 2 4 6 6 6 8 8 7 6 6 4 4 4 2 6 4 3 1 0 0 1 3 3 3 6 4 3 4 5 6 6 4 4 5 5 6 6 6 6 6 5
2 0 3 6 7 6 6 6 5 1 1 0 2 1 3 3 9 9 2 2 2 3 4 3 2 5 4 4 4 4 5 4 4 4 5 6 6 6 6 6 5 5
4 3 3 4 5 6 5 4 3 2 1 1 1 1 3 6 3 2 5 1 3 3 4 3 1 4 6 5 4 4 3 4 3 4 4 5 7 6 6 5 3 3
6 5 4 3 3 2 2 2 2 2 1 1 1 1 2 4 4 7 2 3 3 2 2 3 3 7 10 10 9 8 5 3 3 4 4 4 4 3 3 3 3 6
2 3 2 1 2 1 1 0 1 2 4 5 6 6 5 7 9 4 5 3 4 3 6 5 4 6 10 9 9 8 5 2 3 3 4 4 4 2 1 0 0 3
3 4 3 2 3 3 3 3 2 2 3 1 4 5 5 6 3 1 4 3 3 3 4 5 5 5 7 9 8 8 7 4 3 4 5 4 3 3 2 1 2 3
Wind_Direction
178 181 182 184 188 188 181 180 186 185 191 188 190 201 198 208 211 211 211 210 210 221 229 226 229 226 214 212 196 205 225 206 309 205 118 124 102 61 32 5 35 40
185 184 189 185 187 190 190 187 183 187 191 191 197 193 204 200 215 204 213 215 216 223 223 219 220 219 213 213 194 193 249 265 311 294 108 60 337 73 41 340 358 4
186 185 187 188 191 193 192 193 187 192 189 196 192 190 198 200 209 209 211 211 216 223 220 216 216 217 211 213 206 207 216 238 268 273 112 340 270 11 333 336 348 14
197 194 192 193 190 191 187 184 195 194 194 190 199 200 200 206 200 205 209 212 212 219 217 211 216 215 211 213 204 218 222 224 234 193 252 332 299 313 320 348 351 0
194 199 198 194 191 186 179 188 195 193 195 201 199 202 205 210 205 204 204 212 210 216 209 209 212 217 212 210 202 219 221 229 243 175 202 267 268 276 284 43 17 356
197 199 196 194 190 182 187 196 200 194 200 201 209 202 208 209 206 202 203 207 208 209 207 207 206 219 212 209 201 210 216 225 247 185 216 247 271 272 269 22 37 357
195 195 201 197 194 192 194 201 202 201 202 211 200 210 206 210 209 210 204 205 202 202 203 202 206 217 215 207 203 215 223 221 228 193 210 247 249 282 289 255 300 338
196 194 196 195 199 198 204 204 207 207 207 203 209 218 199 207 210 211 203 201 197 201 202 201 205 213 214 203 210 217 224 213 215 202 211 242 234 252 275 280 293 311
192 193 194 197 202 205 208 208 208 211 204 207 216 221 209 206 206 206 200 196 198 198 198 201 204 209 210 204 212 212 219 219 205 196 201 218 223 239 250 265 278 271
190 194 196 200 206 209 213 212 208 207 200 209 219 221 219 218 210 209 202 197 199 198 197 201 200 206 206 208 210 210 213 219 213 202 202 209 218 239 251 239 244 263
193 194 201 205 208 209 215 213 212 208 199 208 213 219 223 218 221 211 208 204 207 205 202 202 203 202 205 212 217 212 213 215 216 211 211 212 217 228 238 235 235 231
197 198 205 208 211 213 215 215 214 212 207 209 208 216 218 216 215 211 207 209 212 212 207 207 205 204 206 212 214 211 212 217 217 216 217 216 223 226 235 226 225 229
198 201 200 204 210 216 221 221 219 217 214 215 209 212 212 215 218 216 218 211 213 209 211 209 209 207 208 211 213 207 205 208 212 216 218 220 225 238 253 241 226 221
200 199 199 203 206 212 217 221 222 219 218 219 212 213 214 215 215 217 222 218 220 214 217 210 207 209 209 209 207 206 202 207 208 211 221 211 54 107 201 232 222 221
213 206 206 209 210 216 231 230 225 225 222 219 213 216 217 217 217 215 213 220 225 222 221 212 206 211 208 205 205 210 203 206 208 201 155 159 185 213 219 212 224 222
14 352 328 284 243 227 230 229 230 229 226 221 220 220 219 217 214 209 206 211 216 218 217 212 215 214 213 209 207 202 202 208 187 161 179 179 180 208 233 240 237 235
106 86 41 13 357 8 15 351 319 268 226 223 225 221 221 219 206 207 209 210 208 210 209 212 213 212 208 205 207 210 201 199 173 182 176 179 188 188 204 221 234 238
143 150 143 134 83 37 351 353 27 2 326 278 227 223 226 214 209 209 210 208 209 207 207 206 206 177 168 181 183 193 186 171 174 179 189 194 202 199 207 207 219 229
164 168 165 154 148 165 202 239 125 98 350 338 324 299 232 207 215 209 211 208 204 203 206 203 171 122 157 154 169 187 188 166 176 182 185 199 201 205 206 217 225 233
160 155 128 113 125 108 76 332 318 258 198 195 334 328 303 246 222 211 210 206 208 203 196 144 111 41 46 155 188 198 204 186 184 186 196 199 202 202 203 209 217 219
25 73 135 143 151 163 161 189 195 198 214 212 177 185 287 316 277 204 191 118 46 101 109 79 52 17 355 331 294 253 235 216 200 203 207 215 214 209 208 210 212 215
22 243 185 173 177 179 182 187 184 180 282 158 251 281 85 52 341 337 5 74 84 99 107 94 58 19 355 338 330 309 284 241 215 205 215 222 222 218 219 220 213 199
136 169 186 192 176 174 188 181 136 118 98 28 330 343 77 77 80 274 285 24 79 86 112 119 90 12 1 355 347 347 301 250 234 216 219 225 227 222 223 223 215 192
135 155 161 160 138 156 177 197 167 157 151 125 59 325 123 127 173 228 203 54 75 89 111 103 73 30 18 6 3 355 321 285 262 226 222 226 241 242 228 219 224 207
78 86 86 70 68 85 130 135 124 144 176 184 189 184 164 179 205 194 72 55 50 69 87 87 67 38 26 19 17 10 354 316 291 257 233 225 212 213 21 31 5 190
74 76 73 46 28 30 19 32 43 69 53 64 114 146 170 220 223 112 109 71 52 55 54 64 66 46 25 24 29 25 7 333 272 234 235 227 201 168 143 55 83 89